Temperature
12 13 13 13 13 13 13 13 13 13 13 13 13 13 13 13 13 13 13 13 14 14 14 14 14 14 14 14 14 14 14 14 14 15 15 15 15 15 15 15 15 15 15
13 13 13 13 13 13 13 13 13 13 13 13 13 13 13 13 13 14 14 14 14 14 14 14 14 14 14 14 14 14 14 14 14 14 14 15 15 15 15 15 15 15 15
13 13 13 13 13 13 13 13 13 13 13 13 13 14 14 14 14 14 14 14 14 14 14 14 14 15 15 14 14 14 14 14 14 14 14 14 14 15 15 15 15 15 15
13 13 13 13 13 13 13 13 13 13 13 13 13 14 14 14 14 14 14 14 14 14 14 14 14 14 15 15 14 14 14 14 14 14 14 14 14 14 14 14 14 14 14
12 12 12 12 12 13 13 13 13 13 13 13 13 13 13 13 13 13 14 14 14 14 14 14 14 14 14 14 14 14 14 14 14 14 14 14 14 14 14 14 14 14 14
12 12 12 12 12 12 12 12 12 12 12 12 12 12 13 13 13 13 13 14 14 14 14 14 14 14 14 14 14 14 14 14 14 14 14 14 14 14 14 13 13 13 13
11 11 11 11 12 11 11 12 12 12 12 12 12 12 12 12 12 13 13 13 13 14 14 14 14 14 14 14 14 14 14 14 14 14 14 14 14 13 13 13 13 13 13
12 11 11 11 11 11 11 11 11 11 11 11 11 11 12 12 12 12 12 12 13 13 13 13 13 13 14 14 14 14 14 14 14 14 14 14 13 13 13 13 13 13 12
12 12 11 11 11 11 11 11 11 11 11 11 11 11 11 11 11 12 12 12 12 12 13 13 13 13 13 13 13 14 14 14 14 14 14 13 13 13 13 13 13 13 12
12 12 12 11 11 11 11 11 10 10 10 10 10 11 11 11 11 11 11 11 11 12 12 12 12 12 13 13 13 13 13 14 14 13 13 13 13 13 13 13 13 13 12
12 12 12 11 11 11 11 10 10 10 10 10 10 10 10 10 11 11 11 11 11 11 11 11 11 12 12 12 13 13 13 13 13 13 13 13 13 13 13 13 12 12 12
12 12 12 11 11 11 11 10 10 10 10 10 10 10 10 10 10 10 10 10 10 10 10 11 11 11 12 12 12 12 13 13 13 13 13 13 13 13 12 12 12 12 12
13 12 12 11 11 11 10 10 10 10 10 10 10 10 10 10 10 10 10 10 10 10 10 10 10 11 11 11 12 12 12 12 12 13 12 12 12 12 12 12 11 11 11
13 12 12 11 11 11 10 10 10 10 10 10 10 9 9 9 9 9 9 9 9 10 10 10 10 10 11 11 11 11 12 12 12 12 12 12 12 11 11 11 11 11 11
13 12 12 11 11 11 10 10 10 10 9 9 9 9 9 9 9 9 9 9 9 9 10 10 10 10 10 11 11 11 11 12 12 12 12 11 11 11 11 11 11 10 10
13 12 12 11 11 11 10 10 10 9 9 9 9 8 8 8 8 8 9 9 9 9 10 10 10 10 10 10 11 11 11 11 11 11 11 11 11 10 10 10 10 10 10
13 12 12 11 11 11 10 10 10 9 9 8 8 8 8 8 8 8 8 9 9 9 10 10 9 10 10 10 10 10 10 10 10 10 10 10 10 10 10 10 9 9 9
13 12 12 11 11 11 11 10 10 9 9 9 8 8 8 8 8 8 8 9 9 9 9 9 9 9 9 9 10 10 10 10 10 10 10 10 9 9 9 9 9 9 8
13 12 12 12 11 11 11 10 10 9 9 9 8 8 8 8 8 8 9 9 9 9 9 9 9 9 9 9 9 9 9 9 9 9 9 9 9 9 8 8 8 8 8
13 13 12 12 12 11 11 11 10 10 9 9 8 8 8 8 8 9 9 9 9 9 9 9 9 9 9 9 9 9 8 8 8 8 8 8 8 8 8 7 7 7 7
13 13 12 12 12 11 11 11 10 10 9 9 8 8 8 8 8 9 9 9 9 9 9 9 9 9 9 9 9 8 8 8 8 8 8 7 7 7 7 7 7 7 7
13 13 13 12 12 12 11 11 10 10 10 9 9 8 8 8 8 9 9 9 9 9 9 9 9 9 9 9 9 9 8 8 7 7 7 7 7 7 7 7 7 7 7
13 13 13 13 12 12 12 11 11 10 10 10 9 9 8 8 8 9 9 9 10 10 10 9 9 9 9 9 9 9 8 8 7 7 6 6 7 7 7 7 7 7 7
14 13 13 13 13 12 12 12 11 11 11 10 10 9 9 9 8 9 9 9 10 10 10 10 10 10 10 10 10 10 9 8 8 7 7 7 7 7 7 7 7 7 7
14 14 13 13 13 13 12 12 12 11 11 11 10 10 9 9 9 9 9 9 10 10 10 10 10 10 10 10 10 10 9 8 8 8 7 8 8 8 8 8 7 7 7
14 14 13 13 13 13 13 13 12 12 12 11 11 10 10 9 9 9 9 10 10 10 10 10 10 10 10 10 10 10 9 9 8 8 8 8 8 8 8 7 7 7 6
Wind_Speed
8 7 6 6 6 6 5 5 4 3 3 3 2 2 2 2 1 1 1 2 2 3 3 4 5 4 4 4 3 3 4 4 5 4 3 2 2 3 4 9 11 12 14
7 7 6 6 5 5 5 4 3 3 2 2 2 1 1 1 1 1 2 1 3 4 4 4 4 4 5 4 4 4 4 4 5 5 3 2 3 3 3 4 5 9 11
8 8 8 7 7 6 6 5 4 4 4 4 4 3 3 3 2 2 2 3 4 5 5 5 4 4 4 3 4 4 3 3 4 4 3 2 2 1 1 2 2 2 5
9 9 9 8 8 7 7 7 7 7 7 7 7 7 6 5 4 3 2 2 3 4 4 3 4 4 5 5 4 3 2 2 2 2 2 2 2 1 1 2 2 1 1
9 10 9 9 9 9 9 9 9 10 10 9 9 9 7 6 6 5 3 1 0 1 1 1 3 5 6 5 4 3 3 2 1 1 1 1 1 0 2 2 2 1 0
9 9 9 9 9 9 9 9 9 9 9 9 9 8 9 8 10 9 5 2 2 2 2 1 1 3 5 5 5 5 5 3 2 2 1 0 1 1 1 1 2 2 0
7 7 8 8 8 8 8 8 8 8 8 8 8 8 8 11 16 15 13 6 4 3 1 1 2 2 3 2 2 2 1 2 3 3 2 1 1 1 2 2 2 2 1
6 6 6 7 7 7 8 8 7 6 6 6 7 7 8 12 18 17 14 8 6 5 3 2 3 2 2 3 3 2 1 1 1 1 2 1 1 1 2 3 3 3 3
5 5 5 6 6 7 7 7 5 5 5 5 5 7 8 10 17 16 13 6 6 7 6 5 4 3 2 4 5 5 4 3 4 4 4 4 5 5 5 4 4 3 2
2 3 4 5 6 6 6 6 5 5 5 6 7 7 8 8 15 16 13 5 5 5 5 5 6 5 4 4 5 5 5 2 3 3 4 4 5 5 6 4 3 3 2
1 3 4 5 5 6 6 6 6 6 7 7 7 7 8 9 13 16 14 6 4 3 3 3 3 4 4 4 4 4 4 3 3 3 3 3 3 3 3 3 3 3 3
1 3 4 5 5 5 7 7 7 7 7 7 6 7 7 8 10 13 15 12 8 3 2 2 2 3 3 4 3 3 4 5 4 4 4 3 3 3 3 3 5 5 5
3 4 5 6 6 6 6 6 6 6 6 6 6 6 6 7 9 15 15 14 12 5 3 4 3 4 4 4 4 5 5 4 4 4 4 2 2 2 3 4 5 7 9
5 5 5 6 6 6 5 5 5 5 5 5 6 6 6 6 7 8 8 8 9 7 6 6 8 8 6 5 5 4 3 4 4 4 4 3 3 4 4 3 3 3 5
6 6 5 5 5 5 5 4 4 4 3 3 3 3 5 6 8 11 9 8 7 6 5 6 7 6 6 6 5 5 5 4 5 4 4 5 5 5 5 4 4 5 5
5 5 4 4 4 4 4 3 5 3 5 5 5 4 3 6 9 12 14 15 15 12 9 8 8 8 7 7 6 6 6 6 5 5 6 6 6 6 6 5 5 5 5
6 5 4 5 5 4 3 3 1 3 4 5 6 7 7 10 11 12 12 13 15 13 10 9 8 8 8 7 7 7 6 6 5 6 6 6 6 6 6 5 5 5 5
5 5 5 4 5 4 4 3 2 1 1 3 5 7 8 10 11 11 11 9 9 9 7 7 7 7 7 7 7 6 6 7 6 6 6 6 5 5 5 5 5 5 4
4 4 4 3 3 4 4 4 3 3 2 1 3 5 7 7 10 11 9 6 6 6 6 6 6 6 6 6 6 6 6 6 6 5 5 5 5 5 5 5 5 6 4
2 5 5 4 3 4 4 4 4 4 3 1 1 2 3 4 4 5 5 4 4 4 4 5 5 5 5 5 5 5 6 6 6 5 5 5 4 5 5 5 4 4 3
1 2 4 3 4 4 5 5 5 5 4 2 1 2 1 2 2 2 3 3 3 3 3 3 4 4 4 4 4 5 5 5 4 4 4 4 4 4 4 4 4 4 3
2 2 2 3 4 4 5 5 5 5 5 4 3 1 2 2 2 2 2 2 2 1 1 2 3 3 2 3 3 4 4 4 4 4 4 4 4 4 4 4 4 3 3
2 2 3 4 4 6 6 5 5 6 5 5 4 3 2 2 3 3 3 3 2 2 3 4 3 3 4 5 4 3 3 2 2 2 3 4 4 4 4 3 3 3 3
2 2 3 4 5 5 6 6 6 6 6 6 5 4 4 4 4 4 4 3 3 2 3 4 5 5 5 4 4 4 3 1 1 2 4 5 4 4 4 3 3 4 5
3 3 3 4 6 6 6 6 6 7 6 6 6 5 5 5 5 5 5 4 4 3 5 6 6 6 6 5 4 3 3 2 3 4 6 6 5 4 4 4 4 4 4
4 4 4 4 5 6 6 7 7 7 7 6 6 6 6 6 6 6 6 5 4 4 5 6 8 8 7 6 4 4 4 4 4 5 7 7 5 5 5 4 6 5 6
Wind_Direction
11 16 25 29 36 41 44 44 48 49 50 55 53 44 30 28 33 76 241 224 226 234 220 203 208 197 190 186 178 179 184 179 216 259 258 269 248 232 200 204 214 217 221
3 11 19 21 27 31 29 22 24 30 24 32 41 43 14 359 359 329 291 252 242 246 241 225 223 203 197 195 191 200 202 200 207 246 270 263 245 225 199 195 206 217 221
14 21 26 27 31 30 27 25 30 34 34 37 48 54 40 29 9 326 286 261 253 250 235 216 216 193 201 199 201 206 211 209 202 222 256 256 255 225 169 197 202 205 218
24 29 28 24 28 32 35 38 43 50 55 56 57 55 55 55 40 7 337 285 254 242 230 206 192 187 192 188 185 191 183 178 192 220 251 264 259 249 158 192 219 216 236
31 34 30 29 33 38 41 44 48 54 59 58 59 50 41 43 32 14 360 4 356 2 333 211 192 185 177 172 165 164 149 143 150 187 247 295 287 187 212 194 200 188 300
35 32 29 33 35 37 41 46 50 50 52 57 56 51 42 33 26 27 30 28 34 49 45 42 109 142 162 167 164 162 158 151 150 137 118 187 267 230 182 152 141 122 254
35 30 28 32 34 32 41 45 46 46 51 53 48 43 35 26 33 35 40 43 42 40 60 118 119 124 128 130 150 135 128 134 145 147 139 199 237 217 152 124 120 122 141
35 28 25 33 35 33 38 41 40 42 47 48 42 36 32 28 32 33 36 35 37 33 36 67 114 108 119 151 143 122 84 44 90 121 137 142 137 120 132 128 121 98 68
30 24 25 37 42 39 36 32 32 43 41 38 35 33 30 18 26 31 34 24 33 31 33 45 75 87 92 130 134 127 100 64 68 100 110 99 92 96 107 93 85 84 67
1 22 36 48 53 48 39 34 33 44 43 44 41 33 28 18 21 26 29 24 29 27 28 31 49 63 66 109 132 135 131 124 103 93 71 60 60 69 77 92 117 109 108
298 44 52 57 64 58 48 41 46 51 49 46 45 32 25 16 14 20 24 21 13 19 24 12 3 29 50 70 107 123 139 135 123 123 100 75 59 52 50 63 86 111 115
105 72 66 60 66 66 60 48 43 48 50 38 30 21 13 7 6 11 18 23 22 22 0 335 324 2 40 68 90 102 103 105 107 107 98 84 73 59 52 55 65 70 76
115 103 95 79 66 62 64 58 47 42 47 36 29 21 4 0 2 10 14 18 21 26 7 8 37 47 54 53 60 83 96 106 114 114 111 97 79 70 67 64 55 65 62
123 123 117 100 81 63 56 54 57 45 42 38 30 17 3 360 4 5 4 9 13 23 23 34 55 64 64 56 56 61 80 111 121 120 112 91 68 61 55 58 64 60 59
119 127 126 119 111 88 67 50 57 44 46 47 21 5 7 5 356 10 24 22 19 21 30 44 47 48 52 52 55 58 62 75 83 83 91 87 76 68 54 49 65 67 70
126 134 140 140 135 126 112 70 29 25 28 38 34 25 357 7 14 29 35 35 34 37 53 54 51 50 52 55 61 59 56 60 65 77 81 83 83 80 72 61 66 75 74
144 150 153 156 159 160 158 149 117 348 356 8 13 17 26 29 34 38 41 41 37 42 56 51 49 48 49 51 55 61 58 51 61 73 80 82 84 82 80 74 73 76 72
143 153 155 165 172 175 181 182 176 162 357 339 347 2 22 38 44 47 46 49 41 40 45 46 43 42 45 49 51 54 57 56 59 64 69 73 78 84 82 78 77 85 79
153 163 166 167 166 162 157 148 141 131 105 28 5 5 23 45 48 47 51 60 59 47 42 42 38 38 41 45 49 51 56 57 56 59 62 67 74 84 85 83 82 81 79
193 190 171 165 161 152 143 139 138 137 129 102 54 3 7 45 45 35 43 60 67 59 49 45 39 41 42 43 45 50 54 52 50 55 59 66 74 85 94 92 92 89 78
235 215 182 163 170 167 161 160 162 162 167 179 225 268 146 110 98 83 76 77 85 82 69 57 48 43 44 47 51 56 60 52 48 53 61 69 80 85 89 92 95 91 89
291 243 202 189 181 178 176 174 172 178 187 195 225 268 133 124 140 136 127 127 131 117 107 92 77 65 64 67 71 75 66 53 39 43 64 75 83 92 99 97 94 86 91
322 273 219 205 193 187 180 181 181 185 196 205 211 213 196 180 179 178 175 172 160 126 105 108 107 98 89 82 80 89 91 61 14 30 87 92 94 98 103 105 106 104 99
318 291 236 214 203 198 194 195 195 196 199 203 204 204 202 196 190 187 183 180 173 153 131 127 132 137 125 102 92 87 77 62 75 97 112 118 116 111 105 98 97 107 105
296 282 253 220 213 211 209 205 203 202 203 203 201 200 198 191 187 186 185 183 181 179 169 156 150 147 141 127 109 88 73 76 111 130 131 125 121 117 110 104 102 103 107
287 280 269 239 223 217 210 208 208 206 206 206 203 198 193 189 189 188 186 185 185 185 177 175 175 168 158 143 121 94 73 85 123 133 134 127 122 122 117 104 104 101 107
Height
1505 1503 1502 1501 1500 1499 1499 1499 1499 1499 1499 1500 1501 1502 1503 1505 1507 1509 1510 1512 1513 1515 1516 1517 1519 1519 1520 1521 1521 1522 1522 1523 1522 1523 1524 1525 1525 1527 1529 1531 1533 1534 1536
1509 1507 1506 1505 1504 1503 1503 1502 1502 1502 1502 1502 1503 1503 1504 1506 1507 1508 1510 1511 1512 1514 1515 1516 1516 1517 1518 1518 1519 1519 1520 1520 1520 1520 1520 1521 1522 1523 1525 1527 1529 1530 1532
1513 1511 1510 1509 1508 1507 1506 1506 1505 1505 1505 1504 1505 1505 1506 1507 1508 1508 1509 1510 1511 1512 1513 1514 1515 1515 1516 1517 1517 1517 1518 1518 1518 1518 1518 1518 1518 1520 1521 1523 1525 1526 1527
1517 1515 1513 1512 1511 1510 1509 1508 1507 1507 1506 1506 1506 1506 1507 1507 1507 1508 1509 1509 1510 1511 1511 1512 1513 1514 1515 1515 1516 1516 1516 1516 1516 1516 1515 1515 1516 1516 1518 1519 1521 1523 1524
1521 1519 1517 1516 1514 1513 1511 1510 1509 1509 1508 1507 1507 1507 1507 1507 1507 1507 1507 1508 1508 1509 1509 1510 1511 1512 1513 1514 1515 1515 1515 1515 1514 1514 1514 1514 1514 1514 1515 1517 1518 1519 1520
1526 1524 1522 1520 1518 1516 1515 1513 1512 1511 1510 1509 1508 1507 1507 1506 1506 1506 1505 1505 1506 1507 1507 1508 1509 1511 1512 1513 1514 1515 1515 1514 1514 1514 1513 1513 1513 1513 1514 1514 1515 1516 1518
1530 1528 1526 1524 1522 1520 1518 1516 1514 1513 1512 1511 1509 1508 1507 1506 1505 1505 1504 1504 1504 1505 1506 1507 1508 1510 1511 1512 1514 1514 1515 1515 1515 1514 1514 1513 1513 1513 1513 1513 1514 1515 1516
1534 1531 1529 1527 1525 1523 1521 1519 1517 1516 1514 1513 1512 1510 1509 1507 1506 1505 1504 1503 1503 1504 1504 1505 1507 1508 1510 1512 1513 1514 1514 1515 1515 1515 1514 1514 1514 1514 1513 1514 1514 1515 1515
1537 1535 1532 1530 1527 1525 1523 1521 1520 1519 1517 1516 1514 1513 1511 1509 1507 1505 1504 1503 1502 1502 1503 1504 1505 1507 1508 1510 1512 1513 1514 1515 1515 1515 1515 1515 1515 1515 1514 1514 1515 1515 1516
1540 1538 1536 1533 1530 1528 1526 1524 1523 1521 1520 1518 1517 1515 1512 1510 1508 1506 1504 1503 1502 1501 1501 1502 1503 1505 1506 1508 1510 1511 1513 1514 1515 1516 1516 1516 1516 1516 1515 1516 1516 1516 1516
1543 1541 1538 1536 1533 1531 1528 1527 1525 1524 1522 1521 1519 1517 1514 1512 1509 1506 1504 1502 1501 1500 1500 1500 1501 1503 1504 1506 1508 1510 1512 1513 1515 1516 1516 1517 1517 1517 1517 1517 1517 1517 1517
1544 1543 1540 1538 1535 1533 1531 1529 1528 1526 1525 1523 1521 1518 1516 1513 1510 1508 1505 1503 1501 1500 1499 1500 1500 1501 1503 1505 1507 1509 1511 1512 1514 1516 1517 1517 1517 1518 1518 1518 1518 1518 1518
1546 1544 1542 1540 1538 1536 1533 1532 1530 1528 1527 1525 1523 1520 1518 1515 1512 1509 1506 1504 1502 1501 1500 1499 1500 1501 1502 1504 1506 1508 1510 1512 1514 1516 1517 1517 1518 1518 1519 1519 1519 1519 1519
1546 1545 1544 1542 1540 1538 1536 1534 1533 1531 1529 1527 1524 1522 1520 1517 1514 1511 1509 1506 1504 1503 1501 1501 1501 1501 1502 1504 1506 1508 1510 1512 1514 1516 1517 1518 1518 1519 1519 1520 1520 1520 1520
1547 1546 1545 1544 1542 1541 1539 1537 1535 1533 1531 1529 1527 1525 1522 1519 1517 1515 1512 1509 1507 1506 1505 1504 1504 1504 1504 1505 1507 1509 1511 1513 1515 1516 1517 1518 1519 1520 1520 1521 1521 1521 1521
1548 1547 1546 1545 1544 1542 1541 1539 1537 1535 1533 1531 1529 1527 1525 1523 1521 1519 1516 1514 1512 1511 1509 1507 1507 1507 1508 1508 1510 1511 1513 1514 1516 1517 1518 1520 1520 1521 1521 1522 1522 1522 1521
1549 1548 1547 1546 1545 1544 1542 1541 1539 1538 1536 1534 1532 1530 1528 1526 1524 1522 1520 1518 1516 1515 1513 1512 1511 1512 1512 1513 1513 1514 1516 1517 1518 1519 1520 1521 1522 1522 1522 1522 1522 1522 1521
1550 1549 1548 1547 1546 1545 1544 1542 1541 1539 1537 1536 1534 1532 1530 1528 1526 1525 1523 1522 1520 1518 1517 1516 1516 1516 1516 1517 1517 1518 1519 1520 1521 1521 1522 1522 1523 1523 1523 1523 1522 1522 1522
1551 1550 1549 1548 1547 1546 1545 1543 1542 1540 1539 1537 1535 1534 1532 1530 1529 1527 1525 1524 1522 1521 1520 1520 1520 1520 1520 1520 1520 1521 1521 1522 1522 1523 1523 1523 1523 1523 1523 1523 1523 1522 1522
1551 1550 1549 1548 1547 1546 1545 1544 1543 1541 1540 1538 1537 1535 1534 1532 1531 1529 1527 1525 1524 1523 1522 1522 1522 1521 1521 1522 1522 1522 1522 1522 1523 1523 1523 1523 1523 1523 1523 1523 1523 1522 1522
1550 1550 1549 1548 1547 1546 1545 1544 1543 1542 1541 1539 1538 1537 1536 1534 1532 1531 1529 1527 1526 1525 1524 1523 1523 1522 1522 1522 1522 1522 1522 1522 1522 1522 1523 1523 1523 1523 1523 1523 1523 1522 1521
1549 1549 1548 1548 1547 1546 1545 1545 1544 1543 1541 1540 1539 1538 1537 1535 1534 1532 1531 1529 1528 1527 1526 1525 1524 1523 1522 1522 1521 1521 1521 1521 1521 1522 1522 1522 1523 1523 1523 1523 1522 1522 1521
1547 1547 1547 1547 1546 1545 1545 1544 1543 1542 1541 1540 1539 1539 1537 1536 1535 1534 1532 1531 1530 1528 1527 1526 1525 1524 1523 1522 1521 1521 1521 1521 1521 1521 1522 1522 1522 1523 1523 1522 1522 1522 1521
1545 1545 1545 1545 1545 1544 1544 1543 1542 1542 1541 1540 1539 1538 1537 1536 1536 1534 1533 1532 1531 1530 1529 1528 1527 1525 1524 1523 1522 1522 1521 1521 1522 1522 1522 1522 1523 1523 1523 1522 1522 1522 1522
1542 1542 1542 1542 1543 1543 1542 1542 1541 1541 1540 1539 1538 1538 1537 1536 1535 1534 1534 1533 1532 1531 1530 1529 1528 1527 1525 1524 1523 1523 1523 1523 1523 1523 1523 1523 1523 1523 1523 1523 1523 1523 1523
1538 1538 1539 1539 1540 1540 1540 1540 1539 1539 1538 1538 1537 1536 1536 1535 1534 1534 1533 1532 1532 1531 1530 1530 1529 1528 1527 1526 1525 1524 1524 1524 1524 1524 1524 1524 1524 1524 1524 1524 1524 1524 1524